Location: Newark
(25.4800°N, 85.7200°E)
Time: 16:28:06
(UTC+00:00)

Transit 4A - Pass Details

Date: 03 September 2019
Orbit: 867 x 978 km, 66.8° (Epoch: 23 October)

Event Time Altitude Azimuth Distance (km) Brightness Sun altitude
Rises 20:06:39 0° 322° (NW) 3,557 - -47.6°
Reaches altitude 10° 20:09:28 10° 313° (NW) 2,593 - -47.1°
Maximum altitude 20:14:37 31° 253° (WSW) 1,527 - -46.3°
Drops below altitude 10° 20:19:40 10° 193° (SSW) 2,526 - -45.5°
Sets 20:22:23 0° 183° (S) 3,451 - -45.1°
